Location: Rounton
(54.4000°N, 1.3500°W)
Time: 15:05:02
(UTC+00:00)

Transit 2A - Pass Details

Date: 05 December 2021
Orbit: 591 x 967 km, 66.7° (Epoch: 21 January)

Event Time Altitude Azimuth Distance (km) Brightness Sun altitude
Rises 08:26:17 0° 317° (NW) 3,654 8.8 1.0°
Reaches altitude 10° 08:28:53 10° 314° (NW) 2,715 8.2 1.3°
Maximum altitude 08:35:09 58° 238° (WSW) 1,111 6.9 2.0°
Drops below altitude 10° 08:41:13 10° 161° (SSE) 2,629 10.2 2.6°
Sets 08:43:43 0° 157° (SSE) 3,530 11.0 2.8°
